Location: Chenereilles
(45.4866°N, 4.0790°E)
Time: 07:07:23
(UTC+00:00)

SKYMED 2 - Pass Details

Date: 12 November 2019
Orbit: 621 x 623 km, 97.9° (Epoch: 07 December)

Event Time Altitude Azimuth Distance (km) Brightness Sun altitude
Exits shadow 17:50:10 - 14° (NNE) 2,951 6.8 -16.4°
Rises 17:50:15 0° 14° (NNE) 2,914 6.8 -16.4°
Reaches altitude 10° 17:52:27 10° 15° (NNE) 2,002 5.9 -16.8°
Maximum altitude 17:56:49 80° 102° (ESE) 637 3.4 -17.6°
Drops below altitude 10° 18:01:09 10° 191° (S) 1,985 6.4 -18.3°
Sets 18:03:19 0° 192° (SSW) 2,887 7.2 -18.7°
